KE8FSY Weather Reports


time (UTC)temp
F
wind
direction
speed
knots
gust
knots
rain 1hr
in
rain 24hr
in
rain mn
in
humidity
%
barometer
mb
20260906115012 72 109 1.7 5.2 0.00 0.00 0.00 86 1014.1
20260906114524 72 78 0.0 3.5 0.00 0.00 0.00 86 1013.9
20260906114013 72 78 0.9 3.5 0.00 0.00 0.00 86 1013.8
20260906113515 72 89 0.9 4.3 0.00 0.00 0.00 86 1013.8
20260906113029 72 81 1.7 4.3 0.00 0.00 0.00 86 1013.8
20260906112520 72 111 0.0 5.2 0.00 0.00 0.00 86 1013.8
20260906112019 72 326 0.9 5.2 0.00 0.00 0.00 87 1013.8
20260906111533 72 78 0.9 5.2 0.00 0.00 0.00 87 1013.6
20260906111015 72 87 0.0 1.7 0.00 0.00 0.00 87 1013.6
20260906110518 72 73 0.0 6.1 0.00 0.00 0.00 87 1013.5
20260906110033 72 55 1.7 6.1 0.00 0.00 0.00 87 1013.4
20260906105519 72 76 0.9 5.2 0.00 0.00 0.00 87 1013.3
20260906105014 72 52 2.6 5.2 0.00 0.00 0.00 87 1013.2
20260906104532 72 88 0.9 5.2 0.00 0.00 0.00 87 1013.2
20260906104014 72 56 1.7 5.2 0.00 0.00 0.00 87 1013.2
20260906103515 72 88 2.6 3.5 0.00 0.00 0.00 87 1013.1
20260906103028 72 72 0.0 1.7 0.00 0.00 0.00 88 1013.0
20260906102513 72 58 0.0 1.7 0.00 0.00 0.00 87 1013.0
20260906102018 72 68 0.0 1.7 0.00 0.00 0.00 87 1012.9
20260906101534 72 64 0.0 2.6 0.00 0.00 0.00 87 1012.9
20260906101007 72 64 0.0 2.6 0.00 0.00 0.00 87 1012.9
20260906100505 72 77 0.0 2.6 0.00 0.00 0.00 87 1012.9
20260906100012 72 82 0.0 6.1 0.00 0.00 0.00 87 1012.8
20260906095510 72 73 1.7 6.1 0.00 0.00 0.00 87 1012.7
20260906095008 73 37 0.0 3.5 0.00 0.00 0.00 87 1012.7
20260906094534 73 67 0.9 3.5 0.00 0.00 0.00 87 1012.7
20260906094009 73 82 0.9 2.6 0.00 0.00 0.00 87 1012.7
20260906093518 73 80 0.0 1.7 0.00 0.00 0.00 87 1012.7
20260906093033 73 80 0.0 2.6 0.00 0.00 0.00 87 1012.7
20260906092503 73 102 0.9 2.6 0.00 0.00 0.00 86 1012.7
20260906092003 73 86 0.9 5.2 0.00 0.00 0.00 86 1012.7
20260906091510 74 53 0.9 5.2 0.00 0.00 0.00 86 1012.8
20260906091006 74 72 0.9 3.5 0.00 0.00 0.00 86 1012.8
20260906090505 74 50 0.0 2.6 0.00 0.00 0.00 86 1012.8
20260906090010 74 47 0.9 3.5 0.00 0.00 0.00 86 1012.9
20260906085509 74 44 0.9 5.2 0.00 0.00 0.00 86 1012.9
20260906085009 74 76 2.6 5.2 0.00 0.00 0.00 86 1012.8
20260906084517 74 91 1.7 2.6 0.00 0.00 0.00 86 1012.8
20260906084011 74 38 0.0 2.6 0.00 0.00 0.00 86 1012.8
20260906083514 74 114 0.0 4.3 0.00 0.00 0.00 86 1012.7
20260906083033 74 88 0.9 4.3 0.00 0.00 0.00 86 1012.7
20260906082514 74 10 0.0 3.5 0.00 0.00 0.00 86 1012.7
20260906082012 74 29 0.9 4.3 0.00 0.00 0.00 86 1012.7
20260906081503 75 15 0.0 4.3 0.00 0.00 0.00 86 1012.7
20260906081003 75 340 0.0 2.6 0.00 0.00 0.00 86 1012.7
20260906080507 75 77 0.0 2.6 0.00 0.00 0.00 86 1012.7
20260906080006 75 31 0.0 1.7 0.00 0.00 0.00 86 1012.7
20260906075507 75 340 0.0 1.7 0.00 0.00 0.00 87 1012.6
20260906075008 74 68 0.0 1.7 0.00 0.00 0.00 87 1012.5
20260906074515 74 68 0.0 1.7 0.00 0.00 0.00 87 1012.6
20260906074011 74 30 0.0 1.7 0.00 0.00 0.00 88 1012.5
20260906073512 74 282 0.0 0.0 0.00 0.00 0.00 88 1012.5
20260906073019 74 282 0.0 0.0 0.00 0.00 0.00 88 1012.5
20260906072512 74 282 0.0 0.0 0.00 0.00 0.00 88 1012.5
20260906072014 74 282 0.0 0.0 0.00 0.00 0.00 88 1012.6
20260906071527 74 282 0.0 0.0 0.00 0.00 0.00 87 1012.6
20260906071016 74 282 0.0 0.9 0.00 0.00 0.00 87 1012.4
20260906070504 74 282 0.0 1.7 0.00 0.00 0.00 87 1012.3
20260906070004 74 282 0.0 1.7 0.00 0.00 0.00 87 1012.4
20260906065510 74 280 0.9 1.7 0.00 0.00 0.00 87 1012.5
20260906065004 74 253 0.0 0.0 0.00 0.00 0.00 87 1012.4
20260906064514 75 249 0.0 0.0 0.00 0.00 0.00 86 1012.5
20260906064008 75 249 0.0 1.7 0.00 0.00 0.00 86 1012.5
20260906063509 75 249 0.0 1.7 0.00 0.00 0.00 86 1012.7
20260906063018 75 249 0.0 0.0 0.00 0.00 0.00 85 1012.8
20260906062513 76 249 0.0 0.0 0.00 0.00 0.00 85 1012.9
20260906062014 76 249 0.0 0.0 0.00 0.00 0.00 85 1012.8
20260906061526 76 249 0.0 0.0 0.00 0.00 0.00 85 1012.9
20260906061015 76 249 0.0 1.7 0.00 0.00 0.00 85 1012.9
20260906060517 76 249 0.0 1.7 0.00 0.00 0.00 84 1012.9
20260906060035 76 249 0.0 0.0 0.00 0.00 0.00 84 1012.9
20260906055503 76 281 0.0 0.0 0.00 0.00 0.00 84 1012.8
20260906055006 76 284 0.0 1.7 0.00 0.00 0.00 84 1012.8
20260906054507 76 284 0.0 2.6 0.00 0.00 0.00 83 1012.8
20260906054006 77 284 0.9 2.6 0.00 0.00 0.00 83 1012.7
20260906053510 77 287 1.7 2.6 0.00 0.00 0.00 83 1012.7
20260906053016 77 275 0.0 2.6 0.00 0.00 0.00 83 1012.8
20260906052513 77 280 0.9 2.6 0.00 0.00 0.00 83 1012.8
20260906052010 77 232 0.0 1.7 0.00 0.00 0.00 82 1012.8
20260906051524 77 208 0.0 3.5 0.00 0.00 0.00 81 1012.8
20260906051011 78 288 1.7 3.5 0.00 0.00 0.00 81 1012.8
20260906050515 78 288 0.9 1.7 0.00 0.00 0.00 80 1012.8
20260906050027 78 204 0.0 1.7 0.00 0.00 0.00 80 1012.8
20260906045516 78 353 0.0 0.0 0.00 0.00 0.00 79 1012.8
20260906045015 78 10 0.0 0.0 0.00 0.00 0.00 79 1012.7
20260906044533 78 7 0.0 0.0 0.00 0.00 0.00 79 1012.7
20260906044003 78 7 0.0 0.0 0.00 0.00 0.00 79 1012.8
20260906043507 78 49 0.0 0.0 0.00 0.00 0.00 79 1012.5
20260906043010 78 81 0.0 0.0 0.00 0.00 0.00 80 1012.2
20260906042507 78 81 0.0 0.0 0.00 0.00 0.00 81 1012.2
20260906042011 78 81 0.0 1.7 0.00 0.00 0.00 81 1012.3
20260906041521 78 81 0.0 1.7 0.00 0.00 0.00 81 1012.2
20260906041016 78 81 0.9 1.7 0.00 0.00 0.00 82 1012.0
20260906040514 78 86 0.0 1.7 0.00 0.00 0.00 82 1012.2
20260906040031 78 87 0.0 1.7 0.00 0.00 0.00 82 1012.3
20260906035516 78 86 0.0 2.6 0.00 0.00 0.00 81 1012.3
20260906035016 79 103 0.0 2.6 0.00 0.00 0.00 81 1011.9
20260906034541 79 103 0.0 1.7 0.00 0.00 0.00 80 1012.3
20260906034017 79 97 0.0 1.7 0.00 0.00 0.00 80 1012.3
20260906033515 79 127 0.9 2.6 0.00 0.00 0.00 80 1012.4
20260906033023 79 75 0.0 2.6 0.00 0.00 0.00 80 1012.4
20260906032507 79 70 0.0 1.7 0.00 0.00 0.00 80 1012.2
20260906032009 79 70 0.0 2.6 0.00 0.00 0.00 80 1012.2
20260906031518 79 72 1.7 2.6 0.00 0.00 0.00 80 1012.2
20260906031012 79 70 0.9 1.7 0.00 0.00 0.00 80 1012.1
20260906030512 79 114 0.0 0.0 0.00 0.00 0.00 80 1012.2
20260906030024 79 114 0.0 0.0 0.00 0.00 0.00 81 1012.4
20260906025514 79 115 0.0 0.0 0.00 0.00 0.00 79 1012.5
20260906025020 79 115 0.0 0.0 0.00 0.00 0.00 80 1012.4
20260906024527 79 114 0.0 0.0 0.00 0.00 0.00 81 1012.5
20260906024015 79 114 0.0 0.0 0.00 0.00 0.00 80 1012.7
20260906023518 79 114 0.0 0.0 0.00 0.00 0.00 80 1012.5
20260906023032 79 114 0.0 0.0 0.00 0.00 0.00 81 1012.5
20260906022515 79 116 0.0 0.0 0.00 0.00 0.00 81 1012.5
20260906022008 79 170 0.0 0.0 0.00 0.00 0.00 80 1012.5
20260906021517 79 170 0.0 0.0 0.00 0.00 0.00 80 1012.5
20260906021009 79 170 0.0 0.0 0.00 0.00 0.00 80 1012.7
20260906020510 79 170 0.0 0.0 0.00 0.00 0.00 79 1012.6
20260906020018 79 170 0.0 0.0 0.00 0.00 0.00 80 1012.5
20260906015513 79 170 0.0 0.0 0.00 0.00 0.00 80 1012.5
20260906015013 79 170 0.0 1.7 0.00 0.00 0.00 80 1012.3
20260906014538 79 170 0.0 1.7 0.00 0.00 0.00 80 1012.3
20260906014018 79 87 0.0 1.7 0.00 0.00 0.00 80 1012.2
20260906013515 79 48 0.0 0.0 0.00 0.00 0.00 79 1012.2
20260906013032 79 48 0.0 0.0 0.00 0.00 0.00 79 1012.2
20260906012520 79 48 0.0 0.0 0.00 0.00 0.00 78 1012.2
20260906012019 79 48 0.0 0.0 0.00 0.00 0.00 78 1012.1
20260906011539 79 48 0.0 0.0 0.00 0.00 0.00 78 1012.1
20260906011007 79 49 0.0 0.0 0.00 0.00 0.00 1011.8
20260906010509 80 49 0.0 0.0 0.00 0.00 0.00 77 1011.6
20260906010016 80 49 0.0 0.0 0.00 0.00 0.00 77 1011.7
20260906005513 80 49 0.0 0.0 0.00 0.00 0.00 77 1011.7
20260906005016 80 49 0.0 0.0 0.00 0.00 0.00 76 1011.8
20260906004537 81 49 0.0 0.0 0.00 0.00 0.00 76 1011.8
20260906004015 81 49 0.0 0.0 0.00 0.00 0.00 74 1011.7
20260906003514 81 49 0.0 0.0 0.00 0.00 0.00 73 1011.7
20260906003045 82 49 0.0 0.0 0.00 0.00 0.00 72 1011.6
20260906002515 82 49 0.0 0.0 0.00 0.00 0.00 72 1011.6
20260906002016 82 50 0.0 0.0 0.00 0.00 0.00 72 1011.7
20260906001533 83 50 0.0 0.0 0.00 0.00 0.00 71 1011.8
20260906001015 83 49 0.0 0.0 0.00 0.00 0.00 71 1011.9
20260906000518 83 49 0.0 0.0 0.00 0.00 0.00 70 1011.8
20260906000016 83 49 0.0 0.0 0.00 0.00 0.00 71 1011.8
20260905235510 83 49 0.0 0.0 0.00 0.00 0.00 70 1011.8
20260905235012 83 50 0.0 0.0 0.00 0.00 0.00 70 1011.9
20260905234522 83 50 0.0 0.9 0.00 0.00 0.00 70 1012.0
20260905234013 84 50 0.0 0.9 0.00 0.00 0.00 69 1011.9
20260905233512 84 34 0.0 1.7 0.00 0.00 0.00 68 1012.1
20260905233029 84 34 0.0 1.7 0.00 0.00 0.00 68 1012.1
20260905232515 84 20 0.0 2.6 0.00 0.00 0.00 67 1012.0
20260905232017 85 53 0.9 2.6 0.00 0.00 0.00 67 1011.9
20260905231537 85 68 0.0 1.7 0.00 0.00 0.00 67 1012.0
20260905231017 85 72 0.0 1.7 0.00 0.00 0.00 66 1011.9
20260905230517 85 62 0.0 1.7 0.00 0.00 0.00 66 1011.8
20260905230035 85 43 0.0 4.3 0.00 0.00 0.00 66 1011.8
20260905225522 85 84 0.9 4.3 0.00 0.00 0.00 66 1011.9
20260905225013 85 78 0.0 3.5 0.00 0.00 0.00 66 1011.9
20260905224527 85 47 0.0 3.5 0.00 0.00 0.00 66 1011.9
20260905224013 85 74 0.9 3.5 0.00 0.00 0.00 66 1011.8
20260905223515 85 22 0.0 3.5 0.00 0.00 0.00 66 1011.9
20260905223024 85 51 0.0 3.5 0.00 0.00 0.00 66 1011.9
20260905222514 84 75 0.9 3.5 0.00 0.00 0.00 66 1011.8
20260905222017 84 68 0.0 2.6 0.00 0.00 0.00 65 1011.7
20260905221528 85 62 0.0 3.5 0.00 0.00 0.00 65 1011.7
20260905221017 85 63 0.9 3.5 0.00 0.00 0.00 65 1011.7
20260905220516 85 54 0.0 3.5 0.00 0.00 0.00 65 1011.7
20260905220031 85 76 0.9 3.5 0.00 0.00 0.00 64 1011.7
20260905215517 85 58 0.9 3.5 0.00 0.00 0.00 64 1011.7
20260905215018 85 51 0.9 3.5 0.00 0.00 0.00 63 1011.7
20260905214533 85 24 0.0 3.5 0.00 0.00 0.00 63 1011.7
20260905214010 85 18 0.0 5.2 0.00 0.00 0.00 62 1011.7
20260905213515 85 2 0.0 5.2 0.00 0.00 0.00 62 1011.6
20260905213037 86 38 0.9 7.0 0.00 0.00 0.00 62 1011.7
20260905212518 86 75 0.9 7.0 0.00 0.00 0.00 61 1011.7
20260905212017 86 82 0.0 6.1 0.00 0.00 0.00 61 1011.6
20260905211508 87 19 0.9 6.1 0.00 0.00 0.00 60 1011.7
20260905211006 87 313 1.7 3.5 0.00 0.00 0.00 59 1011.6
20260905210504 87 307 0.9 8.7 0.00 0.00 0.00 60 1011.7
20260905210012 87 360 0.9 10.4 0.00 0.00 0.00 60 1011.6
20260905205504 87 91 3.5 10.4 0.00 0.00 0.00 59 1011.6
20260905205009 87 67 1.7 10.4 0.00 0.00 0.00 59 1011.6
20260905204518 87 251 0.0 7.0 0.00 0.00 0.00 58 1011.6
20260905204010 88 51 0.9 7.0 0.00 0.00 0.00 57 1011.5
20260905203512 88 11 1.7 5.2 0.00 0.00 0.00 59 1011.6
20260905203023 87 60 0.9 7.0 0.00 0.00 0.00 58 1011.6
20260905202511 88 26 0.9 7.0 0.00 0.00 0.00 57 1011.7
20260905202015 89 265 1.7 7.0 0.00 0.00 0.00 54 1011.7
20260905201512 89 122 0.0 7.0 0.00 0.00 0.00 54 1011.6
20260905201003 89 300 0.9 7.0 0.00 0.00 0.00 54 1011.6
20260905200504 89 84 0.0 2.6 0.00 0.00 0.00 53 1011.7
20260905200008 89 188 0.0 2.6 0.00 0.00 0.00 51 1011.9
20260905195506 89 162 0.0 2.6 0.00 0.00 0.00 53 1012.0
20260905195006 89 172 0.0 2.6 0.00 0.00 0.00 53 1012.2
20260905194512 88 238 0.0 0.9 0.00 0.00 0.00 54 1012.4
20260905194010 88 287 0.0 0.9 0.00 0.00 0.00 53 1012.4
20260905193514 88 227 0.0 3.5 0.00 0.00 0.00 53 1012.5
20260905193017 89 205 0.0 3.5 0.00 0.00 0.00 51 1012.3
20260905192518 89 190 0.0 2.6 0.00 0.00 0.00 52 1012.4
20260905192013 89 142 0.0 2.6 0.00 0.00 0.00 51 1012.4
20260905191523 89 109 0.0 1.7 0.00 0.00 0.00 51 1012.4
20260905191016 89 117 0.0 1.7 0.00 0.00 0.00 51 1012.5
20260905190502 89 126 0.0 1.7 0.00 0.00 0.00 51 1012.5
20260905190010 90 182 0.0 1.7 0.00 0.00 0.00 51 1012.5
20260905185506 89 203 0.0 1.7 0.00 0.00 0.00 52 1012.7
20260905185005 89 195 0.0 1.7 0.00 0.00 0.00 52 1012.7
20260905184512 89 194 0.0 1.7 0.00 0.00 0.00 53 1012.8
20260905184007 89 133 0.0 3.5 0.00 0.00 0.00 52 1012.9
20260905183510 89 200 0.0 3.5 0.00 0.00 0.00 52 1012.9
20260905183016 88 197 0.0 1.7 0.00 0.00 0.00 53 1013.1
20260905182509 88 124 0.0 2.6 0.00 0.00 0.00 53 1013.2
20260905182011 88 93 0.0 2.6 0.00 0.00 0.00 54 1013.1
20260905181531 88 139 0.0 2.6 0.00 0.00 0.00 54 1013.2
20260905181014 88 96 0.0 2.6 0.00 0.00 0.00 55 1013.2
20260905180515 87 124 0.0 3.5 0.00 0.00 0.00 54 1013.2
20260905180029 87 129 0.0 3.5 0.00 0.00 0.00 55 1013.2
20260905175514 87 137 0.9 3.5 0.00 0.00 0.00 54 1013.3
20260905175006 87 182 0.0 5.2 0.00 0.00 0.00 57 1013.3
20260905174513 87 99 1.7 5.2 0.00 0.00 0.00 56 1013.4
20260905174006 87 84 0.9 5.2 0.00 0.00 0.00 59 1013.4
20260905173508 87 127 0.9 6.1 0.00 0.00 0.00 59 1013.4
20260905173013 86 84 2.6 5.2 0.00 0.00 0.00 61 1013.4
20260905172511 86 103 0.9 5.2 0.00 0.00 0.00 61 1013.5
20260905172014 86 157 0.9 5.2 0.00 0.00 0.00 60 1013.6
20260905171525 86 60 2.6 5.2 0.00 0.00 0.00 60 1013.5
20260905171014 85 123 0.9 2.6 0.00 0.00 0.00 64 1013.7
20260905170514 86 88 0.0 1.7 0.00 0.00 0.00 62 1013.7
20260905170026 85 141 0.0 1.7 0.00 0.00 0.00 61 1013.8
20260905165520 84 132 0.0 1.7 0.00 0.00 0.00 65 1013.9
20260905165018 84 136 0.0 2.6 0.00 0.00 0.00 64 1013.8
20260905164532 84 139 0.0 2.6 0.00 0.00 0.00 66 1013.7
20260905164004 84 125 0.0 2.6 0.00 0.00 0.00 67 1013.8
20260905163507 83 122 0.0 0.0 0.00 0.00 0.00 71 1013.8
20260905163013 83 62 0.0 1.7 0.00 0.00 0.00 70 1013.6
20260905162513 83 83 0.0 1.7 0.00 0.00 0.00 69 1013.6
20260905162011 82 91 0.0 1.7 0.00 0.00 0.00 70 1013.6
20260905161517 82 92 0.0 1.7 0.00 0.00 0.00 70 1013.5
20260905161012 82 196 0.0 1.7 0.00 0.00 0.00 71 1013.4
20260905160513 82 183 0.0 1.7 0.00 0.00 0.00 70 1013.4
20260905160038 82 285 0.0 1.7 0.00 0.00 0.00 70 1013.6
20260905155517 82 134 0.0 1.7 0.00 0.00 0.00 73 1013.8
20260905155015 80 190 0.0 1.7 0.00 0.00 0.00 74 1014.0
20260905154530 79 302 0.0 0.0 0.00 0.00 0.00 75 1014.1
20260905154020 79 57 0.0 1.7 0.00 0.00 0.00 74 1013.7
20260905153519 79 159 0.0 2.6 0.00 0.00 0.00 75 1013.8
20260905153010 79 169 0.0 2.6 0.00 0.00 0.00 75 1013.4
20260905152508 79 209 0.0 2.6 0.00 0.00 0.00 75 1013.4
20260905152007 79 233 0.0 5.2 0.00 0.00 0.00 75 1013.3
20260905151515 79 223 0.0 5.2 0.00 0.00 0.00 75 1013.4
20260905151013 79 180 0.9 5.2 0.00 0.00 0.00 75 1013.5
20260905150511 79 195 0.0 2.6 0.00 0.00 0.00 75 1013.8
20260905150022 78 214 0.0 2.6 0.00 0.00 0.00 77 1014.0
20260905145512 78 209 0.0 2.6 0.00 0.00 0.00 77 1014.2
20260905145015 78 199 0.0 0.0 0.00 0.00 0.00 1014.5
20260905144535 78 236 0.0 0.0 0.00 0.00 0.00 75 1014.5
20260905144015 78 236 0.0 0.0 0.00 0.00 0.00 75 1014.6
20260905143516 77 246 0.0 0.0 0.00 0.00 0.00 75 1014.8
20260905143047 77 219 0.0 1.7 0.00 0.00 0.00 74 1015.0
20260905142516 77 219 0.0 1.7 0.00 0.00 0.00 74 1015.0
20260905142007 77 188 0.0 0.0 0.00 0.00 0.00 77 1014.8
20260905141516 76 164 0.0 0.0 0.00 0.00 0.00 77 1014.8
20260905141010 76 146 0.0 0.0 0.00 0.00 0.00 77 1015.1
20260905140514 76 139 0.0 2.6 0.00 0.00 0.00 78 1015.0
20260905140018 76 123 0.0 2.6 0.00 0.00 0.00 78 1015.1
20260905135511 76 148 0.0 1.7 0.00 0.00 0.00 78 1015.2
20260905135012 76 111 0.0 0.0 0.00 0.00 0.00 78 1015.3
20260905134525 76 132 0.0 1.7 0.00 0.00 0.00 78 1015.4
20260905134015 76 106 0.0 1.7 0.00 0.00 0.00 79 1015.5
20260905133518 77 115 0.0 1.7 0.00 0.00 0.00 79 1015.3
20260905133030 77 121 0.0 1.7 0.00 0.00 0.00 79 1015.2
20260905132514 77 83 0.0 1.7 0.00 0.00 0.00 81 1015.2
20260905132022 76 78 0.0 1.7 0.00 0.00 0.00 82 1015.4
20260905131544 76 96 0.0 0.9 0.00 0.00 0.00 81 1015.5
20260905131008 76 112 0.0 1.7 0.00 0.00 0.00 82 1015.6
20260905130508 76 132 0.0 1.7 0.00 0.00 0.00 82 1015.7
20260905130018 76 291 0.0 1.7 0.00 0.00 0.00 83 1015.7
20260905125511 76 67 0.0 6.1 0.00 0.00 0.00 83 1015.6
20260905125011 76 75 1.7 6.1 0.00 0.00 0.00 82 1015.6
20260905124527 76 142 0.0 2.6 0.00 0.00 0.00 83 1015.6
20260905124018 76 101 0.0 2.6 0.00 0.00 0.00 83 1015.3
20260905123514 76 113 0.0 2.6 0.00 0.00 0.00 83 1015.3
20260905123028 76 82 0.0 8.7 0.00 0.00 0.00 82 1015.3
20260905122518 76 77 0.9 7.0 0.00 0.00 0.00 83 1015.2
20260905122015 76 149 0.0 2.6 0.00 0.00 0.00 83 1014.9
20260905121508 76 81 0.0 3.5 0.00 0.00 0.00 83 1015.1
20260905121008 76 128 0.0 3.5 0.00 0.00 0.00 84 1014.9
20260905120508 76 78 0.0 1.7 0.00 0.00 0.00 86 1014.9
20260905120015 76 217 0.0 4.3 0.00 0.00 0.00 86 1014.8
20260905115509 75 244 0.9 4.3 0.00 0.00 0.00 86 1014.6